ONEWEB-0028, 45140

Orbit data source: Space-Track

ONEWEB-0028, 45140 is a payload satellite owned by One Web (UK) in LEO that was launched on Thu, 06 Feb 2020 UTC via a SOYUZ-2-1B launch vehicle from the Tyuratam Missile And Space Complex (TTMTR). Payload-class satellites include a variety of spacecraft equipped with specific instruments for various scientific and technological missions. These include communications satellites like Starlink; space stations such as the ISS; scientific satellites like the Hubble; Earth observation satellites from companies like Planet Labs, Umbra, and HawkEye 360; GPS; miniature CubeSats for education and research; and military/defense satellites.

Loading next visibility...
Identifier
45140, 2020-008K
Orbit
LEO
Country
Flag of UKUK
Related business
Manufacturer
One Web
Mission
Operational Commercial Communications
Bus & Motor
ARROW, Unknown motor
Mass
148 kg wet, ~140 kg dry
Launch date (UTC)
2020-02-06 (6 years ago)
Launch vehicle
SOYUZ-2-1B
Launch site
Tyuratam Missile And Space Complex (TTMTR)
Object type
Payload
Rocket body
Debris
Shape & HBR
Trap Box + 2 Pan, 6.7 m
Radar Cross Section
3.464 m², Large (>1 m²)

Expand to show TLE details & history
Last TLE update: 18 hours ago

TLE from 18 hours ago
0 ONEWEB-0028
1 45140U 20008K   25287.13454033  .00000372  00000-0  10129-2 0  9998
2 45140  87.8812  70.0852 0001126  80.9611 279.1644 13.11414175276373
Epoch: 2025-10-14T03:13Z
TLE epoch observation values (Epoch: 2025-10-14T03:13:44.284Z)
Latitude
-0.00006°
Longitude
-1.27664°
Altitude
1,220.446 km
Speed
7.244 km/s
True Right ascension
04h 40m 20s
True Declination
0° 00' 00"
Sunlit
Object was in full shadow at epoch
Visualization orbit readout
Latitude
Unknown
Longitude
Unknown
Altitude
Unknown
Speed
Unknown
Apparent Right ascension
Unknown
Apparent Declination
Unknown
Sunlit
N/A
Visualization observer readout
Local Sidereal Time
15:47:23
Azimuth
Unknown
Elevation
Unknown
Doppler factor
Unknown
Orbital elements
Apogee altitude
1,215.667 km
Perigee altitude
1,213.957 km
Semi-major axis
7,592.949 km
Eccentricity
0.00011
Inclination
87.8812°
RAAN
70.0852°
Arg. of periapsis
80.9611°
True anomaly
279.15166°
Mean anomaly
279.1644°
Eccentric anomaly
279.15803°
Mean motion
3.28041 °/min
Orbital period
109.74 mins
BSTAR
0.0010129
Loading maneuver chart data...
Computing Atmospheric mass density...
Loading historical data...
Loading historical data...
Loading historical data...
Loading historical data...
Loading historical data...
Loading historical data...
Loading historical data...

Documentation

Showing up to 5 results
|